Sherbrooke, Canada

1:42 PM EDT on July 23, 2016 (GMT -0400)
Sherbrooke

Weather History for CYSC - October, 2013

Change the Weather History Date:

Monday, October 7, 2013

  Actual Average Record
Temperature  
Mean Temperature 60 °F -  
Max Temperature 74 °F 56 °F 75 °F (2005)
Min Temperature 47 °F 35 °F 26 °F (1999)
Degree Days  
Heating Degree Days 4    
Growing Degree Days 10 (Base 50)    
Moisture  
Dew Point 56 °F    
Average Humidity 82    
Maximum Humidity 94    
Minimum Humidity 49    
Precipitation  
Precipitation 0.67 in - - ()
Sea Level Pressure  
Sea Level Pressure 29.78 in    
Wind  
Wind Speed 10 mph ()    
Max Wind Speed 30 mph    
Max Gust Speed 44 mph    
Visibility 7.8 miles    
Events Rain    
Averages and records for this station are not official NWS values.
T = Trace of Precipitation, MM = Missing Value Source: Averaged Metar Reports

Daily Weather History Graph

Daily Weather History Graph

Search for Another Location

Airport or City:

Trip Planner

Search our weather history database for the weather conditions in past years. The results will help you decide how hot, cold, wet, or windy it might be!

Date:

Astronomy

Oct. 07, 2013 Rise Set
Actual Time 6:52 AM EDT 6:15 PM EDT
Civil Twilight 6:23 AM EDT 6:44 PM EDT
Nautical Twilight 5:49 AM EDT 7:19 PM EDT
Astronomical Twilight 5:14 AM EDT 7:53 PM EDT
Moon 9:48 AM EDT (10/7) 7:48 PM EDT (10/7)
Length of Visible Light 12h 21m
Length of Day
11h 22m
Waxing Crescent, 8% of the Moon is Illuminated
Oct 7
Waxing Crescent
Oct 11
First Quarter
Oct 18
Full
Oct 26
Last Quarter
Nov 3
New

Hourly Weather History & Observations

Time (EDT) Temp. Dew Point Humidity Pressure Visibility Wind Dir Wind Speed Gust Speed Precip Events Conditions
12:00 AM 50.0 °F 48.2 °F 94% 30.03 in 9.0 mi ESE 8.1 mph - N/A   Overcast
1:00 AM 51.8 °F 50.0 °F 94% 30.02 in 9.0 mi SE 5.8 mph - N/A   Overcast
2:00 AM 54 °F 50 °F 82% 30.01 in 10 mi SSE 9.2 mph - -   Overcast
2:00 AM 53.6 °F 50.0 °F 88% 30.01 in 9.0 mi SSE 10.4 mph - N/A   Overcast
3:00 AM 53.6 °F 50.0 °F 88% 30.00 in 9.0 mi SE 6.9 mph - N/A   Overcast
4:00 AM 55.4 °F 51.8 °F 88% 29.97 in 9.0 mi SE 6.9 mph - N/A   Overcast
5:00 AM 53 °F 50 °F 87% 29.97 in 10 mi East 5.8 mph - -   Overcast
5:00 AM 53.6 °F 50.0 °F 88% 29.97 in 9.0 mi ENE 4.6 mph - N/A   Overcast
5:26 AM 53.6 °F 50.0 °F 88% 29.96 in 9.0 mi Calm Calm - N/A   Mostly Cloudy
6:00 AM 55.4 °F 51.8 °F 88% 29.95 in 9.0 mi SSE 3.5 mph - N/A   Overcast
7:00 AM 59.0 °F 53.6 °F 82% 29.94 in 9.0 mi SSE 8.1 mph - N/A   Overcast
8:00 AM 60 °F 54 °F 74% 29.93 in 10 mi SSE 9.2 mph - -  
8:00 AM 59.0 °F 53.6 °F 82% 29.93 in 9.0 mi SSE 11.5 mph - N/A   Partly Cloudy
9:00 AM 64.4 °F 55.4 °F 73% 29.92 in 9.0 mi SSE 6.9 mph 17.3 mph N/A   Overcast
9:47 AM 66.2 °F 57.2 °F 73% 29.89 in 9.0 mi SSE 19.6 mph 25.3 mph N/A   Mostly Cloudy
10:00 AM 66.2 °F 57.2 °F 73% 29.89 in 9.0 mi SSE 18.4 mph 25.3 mph N/A   Scattered Clouds
11:00 AM 70 °F 57 °F 55% 29.87 in 10 mi SSE 16.1 mph - -   Clear
11:00 AM 69.8 °F 57.2 °F 64% 29.86 in 9.0 mi SSE 16.1 mph 24.2 mph N/A   Scattered Clouds
12:00 PM 71.6 °F 57.2 °F 60% 29.82 in 9.0 mi South 21.9 mph 31.1 mph N/A   Partly Cloudy
1:00 PM 71.6 °F 59.0 °F 64% 29.78 in 9.0 mi South 13.8 mph 27.6 mph N/A   Partly Cloudy
2:00 PM 75 °F 59 °F 49% 29.73 in 10 mi South 17.3 mph - -   Overcast
2:00 PM 75.2 °F 59.0 °F 57% 29.73 in 9.0 mi South 15.0 mph 31.1 mph N/A   Overcast
3:00 PM 71.6 °F 59.0 °F 64% 29.69 in 9.0 mi SSE 11.5 mph 23.0 mph N/A   Overcast
3:57 PM 71.6 °F 59.0 °F 64% 29.64 in 9.0 mi SSE 13.8 mph 20.7 mph N/A Rain Light Rain
4:00 PM 69.8 °F 59.0 °F 68% 29.63 in 9.0 mi SSE 12.7 mph 20.7 mph N/A Rain Light Rain
4:17 PM 69.8 °F 59.0 °F 68% 29.62 in 9.0 mi SSE 16.1 mph 27.6 mph N/A   Overcast
5:00 PM 70 °F 59 °F 59% 29.57 in 10 mi SSE 17.3 mph - -   Clear
5:00 PM 69.8 °F 59.0 °F 68% 29.57 in 9.0 mi SSE 18.4 mph 27.6 mph N/A   Overcast
5:06 PM 69.8 °F 59.0 °F 68% 29.57 in 9.0 mi SSE 15.0 mph 26.5 mph N/A Rain Light Rain
5:26 PM 69.8 °F 59.0 °F 68% 29.57 in 9.0 mi SSE 21.9 mph 36.8 mph N/A   Overcast
5:41 PM 68.0 °F 60.8 °F 78% 29.65 in 5.0 mi WSW 29.9 mph 43.7 mph N/A   Haze
5:43 PM 64.4 °F 60.8 °F 88% 29.65 in 2.5 mi WSW 20.7 mph 43.7 mph N/A Rain Light Rain
5:44 PM 62.6 °F 60.8 °F 94% 29.65 in 2.0 mi WSW 20.7 mph 43.7 mph N/A Rain Heavy Rain
5:45 PM 62.6 °F 59.0 °F 88% 29.66 in 1.8 mi WSW 19.6 mph 43.7 mph N/A Rain Heavy Rain
5:48 PM 60.8 °F 59.0 °F 94% 29.65 in 1.2 mi WSW 16.1 mph 43.7 mph N/A Rain Heavy Rain
5:54 PM 60.8 °F 59.0 °F 94% 29.66 in 1.8 mi SW 11.5 mph 25.3 mph N/A Rain Rain
5:55 PM 60.8 °F 59.0 °F 94% 29.67 in 2.0 mi SW 11.5 mph 25.3 mph N/A Rain Rain
5:57 PM 60.8 °F 59.0 °F 94% 29.66 in 2.2 mi SW 10.4 mph 23.0 mph N/A Rain Rain
6:00 PM 60.8 °F 59.0 °F 94% 29.65 in 3.0 mi SW 9.2 mph 18.4 mph N/A Rain Rain
6:07 PM 60.8 °F 59.0 °F 94% 29.66 in 6.0 mi SW 9.2 mph - N/A Rain Light Rain
6:13 PM 60.8 °F 59.0 °F 94% 29.65 in 9.0 mi SW 5.8 mph - N/A Rain Light Rain
6:48 PM 60.8 °F 59.0 °F 94% 29.70 in 9.0 mi SW 9.2 mph - N/A Rain Light Rain
6:49 PM 60.8 °F 59.0 °F 94% 29.70 in 9.0 mi SW 9.2 mph - N/A Rain Light Rain
7:00 PM 59.0 °F 57.2 °F 94% 29.70 in 8.0 mi SW 9.2 mph - N/A Rain Light Rain
7:04 PM 59.0 °F 57.2 °F 94% 29.70 in 8.0 mi WSW 12.7 mph - N/A Rain Light Rain
8:00 PM 57 °F 55 °F 90% 29.77 in 7 mi West 12.7 mph - - Rain Light Rain
8:00 PM 57.2 °F 55.4 °F 94% 29.76 in 8.0 mi West 19.6 mph 27.6 mph N/A Rain Light Rain
8:05 PM 57.2 °F 55.4 °F 94% 29.77 in 5.0 mi West 17.3 mph 27.6 mph N/A Rain Light Rain
8:17 PM 55.4 °F 53.6 °F 94% 29.77 in 6.0 mi West 15.0 mph 23.0 mph N/A Rain Light Rain
8:23 PM 55.4 °F 51.8 °F 88% 29.78 in 9.0 mi West 13.8 mph 26.5 mph N/A Rain Light Rain
8:26 PM 55.4 °F 51.8 °F 88% 29.78 in 9.0 mi West 10.4 mph 26.5 mph N/A   Overcast
8:40 PM 55.4 °F 51.8 °F 88% 29.79 in 8.0 mi WSW 12.7 mph 19.6 mph N/A Rain Light Rain
9:00 PM 53.6 °F 51.8 °F 94% 29.79 in 9.0 mi SW 5.8 mph - N/A Rain Light Rain
9:23 PM 53.6 °F 51.8 °F 94% 29.80 in 9.0 mi South 4.6 mph - N/A   Overcast
10:00 PM 53.6 °F 51.8 °F 94% 29.82 in 9.0 mi South 5.8 mph - N/A   Overcast
11:00 PM 53 °F 50 °F 87% 29.83 in 10 mi SSW 4.6 mph - -   Clear
11:00 PM 53.6 °F 50.0 °F 88% 29.82 in 9.0 mi SSW 4.6 mph - N/A   Mostly Cloudy